Showing default

KUIPER-00296, 68595

Orbit data source: Space-Track

KUIPER-00296, 68595 is a payload satellite owned by Kuiper Systems (US) in LEO that was launched on Sat, 04 Apr 2026 UTC via an ATLAS V 551 launch vehicle from the Air Force Eastern Test Range (AFETR). Payload-class satellites include a variety of spacecraft equipped with specific instruments for various scientific and technological missions. These include communications satellites like Starlink; space stations such as the ISS; scientific satellites like the Hubble; Earth observation satellites from companies like Planet Labs, Umbra, and HawkEye 360; GPS; miniature CubeSats for education and research; and military/defense satellites.

Loading next visibility...
Identifier
68595, 2026-072Y
Orbit
LEO
Country
Flag of USUS
Related business
Manufacturer
Kuiper Systems
Mission
Operational spacecraft
Bus & Motor
KUIPER, Unknown motor
Mass
~490 kg wet, ~490 kg dry
Launch date (UTC)
2026-04-04 (2 months ago)
Launch vehicle
ATLAS V 551
Launch site
Air Force Eastern Test Range (AFETR)
Object type
Payload
Rocket body
Debris
Shape & HBR
Unknown shape, 3.4 m
Radar Cross Section
Large (>1 m²)

Expand to show TLE details & history
Last TLE update: 23 hours ago

TLE from 23 hours ago
0 KUIPER-00296
1 68595U 26072Y   26149.69810575  .00034243  00000-0  91507-3 0  9994
2 68595  51.8711 266.4907 0009707 320.9608  39.0678 15.37721636  8533
Epoch: 2026-05-29T16:45Z
TLE epoch observation values (Epoch: 2026-05-29T16:45:16.336Z)
Latitude
0.00001°
Longitude
127.94789°
Altitude
448.466 km
Speed
7.647 km/s
True Right ascension
17h 45m 57s
True Declination
0° 00' 00"
Sunlit
Object was in full shadow at epoch
Visualization orbit readout
Latitude
Unknown
Longitude
Unknown
Altitude
Unknown
Speed
Unknown
Apparent Right ascension
Unknown
Apparent Declination
Unknown
Sunlit
N/A
Visualization observer readout
Local Sidereal Time
01:02:59
Azimuth
Unknown
Elevation
Unknown
Doppler factor
Unknown
Orbital elements
Apogee altitude
459.947 km
Perigee altitude
446.684 km
Semi-major axis
6,831.453 km
Eccentricity
0.00097
Inclination
51.8711°
RAAN
266.4907°
Arg. of periapsis
320.9608°
True anomaly
39.13797°
Mean anomaly
39.0678°
Eccentric anomaly
39.10288°
Mean motion
3.84391 °/min
Orbital period
93.65 mins
BSTAR
0.00091507
Loading maneuver chart data...
Computing Atmospheric mass density...
Loading historical data...
Loading historical data...
Loading historical data...
Loading historical data...
Loading historical data...
Loading historical data...
Loading historical data...

Documentation

Showing up to 5 results
|